NAZIONALE DI WASHOUGAL 2022 // 450 RISULTATI COMPLESSIVI DELLE QUALIFICHE

NAZIONALE DI WASHOUGAL 2022 // 450 RISULTATI DELLE QUALIFICHE

È l'ottavo round della stagione mentre finalizziamo il nostro tratto nell'ultimo trimestre della stagione Pro Motocross 2022. Ma prima di sentire l'eruzione della classe 450 attraverso i boschi a Washougal, dobbiamo prima guardare i piloti che hanno stabilito i loro tempi di qualificazione più veloci! Nella classifica a punti, è ancora molto stretto tra il leader Eli Tomac e il giovane pilota della 450 Chase Sexton. I due hanno lottato per l'intera stagione e ora siedono solo a pochi punti di distanza l'uno dall'altro. Il resto della classe 450 non è così vicino, ma ciò non significa che non ci siano molte battaglie ad alta intensità. Quindi scorri in basso per scoprire chi può mettere i propri 450 in cima alla classifica qui a Washougal!

Clicca qui per 250 risultati in tempo reale.

2022 WASHOUGAL NATIONAL | PIENA COPERTURA

Foto di Trevor Nelson


450 RISULTATI GENERALI DI QUALIFICAZIONE 

Eli Tomac ha iniziato a caricare fin dall'inizio e ha stabilito un impressionante tempo sul giro di 2:11.726 sul terreno accidentato. Ha bisogno di meglio di un 2:10 per battere il suo primo tempo di sessione. Il suo teamat3s, Christain Craig, è rimasto secondo per alcuni minuti di qualifiche fino a quando il pilota ufficiale Honda di Chase Sexton è arrivato a pochi centesimi di secondo dal miglior tempo di Tomac nella sessione 2.

Nell'ultimo giro, il pilota ufficiale Kawasaki di Jason Anderson è uscito dal nulla per prendere la pole con un tempo di 2:11.351. Josh Mosiman della MXA ha nuovamente registrato il 23esimo giro più veloce nella sessione 2.

POS. # NOME MIGLIOR TEMPO
1 3 Eli Tomac 2:10.926
2 23 Chase Sexton 2:11.301
3 21 Jason Anderson 2:11.351
4 94 Ken Roczen 2:11.830
5 28 Christian Craig 2:12.468
6 5 Ryan Dungey 2:12.858
7 35 Garrett Marchbanks 2:13.126
8 51 Justin Barcia 2:13.590
9 17 Giuseppe Savatgy 2:14.155
10 12 Shane McElrath 2:14.248
11 73 Benny Bloss 2:15.067
12 26 Alex Martin 2:15.713
13 41 Brandon Hartranft 2:15.743
14 61 Fredrik Noren 2:16.515
15 7 Aaron Plessinger 2:16.677
16 55 Justin Rodbell 2:17.050
17 285 Maresciallo Weltin 2:17.143
18 11 Kyle Chisholm 2:18.101
19 78 Cade Clason 2:19.492
20 910 Carson Brown 2:19.527
21 647 Matteo Hubert 2:19.652
22 476 Collin Jurin 2:19.731
23 65 Grant Harlan 2:19.989
24 837 Bryson Gardner 2:20.041
25 171 Josh Mosiman 2:20.348
26 57 Kevin Moranz 2:20.496
27 522 Rob Windt 2:21.079
28 204 Kyle Greeson 2:21.224
29 420 Jackson Grey 2:21.634
30 139 Nathen LaPorte 2:21.678
31 820 Matteo Burkeen 2:21.746
32 170 Keylan Meston 2:21.926
33 787 Lars van Berkel 2:21.929
34 216 Devin Harriman 2:22.028
35 92 Jace Kessler 2:22.101
36 841 Jeffrey Walker 2:22.165

TOP 36 VAI DIRETTAMENTE A MOTOS

37 234 McCoy Brough 2:22.209
38 594 Hamburger Morgan Morgan 2:22.650
39 528 Ryan Peters 2:22.930
40 246 Possibilità Blackburn 2:22.989
41 958 Matteo Curler 2:23.106
42 454 Layton Smail 2:23.201
43 617 Hayden Cordell 2:23.486
44 840 Austin Kouba 2:23.665
45 230 Dylan Summerlin 2:24.144
46 181 Wyatt Lyonsmith 2:24.243
47 600 Connor Olson 2:24.411
48 928 Bryce Hammond 2:24.413
49 645 Colby Copp 2:24.505
50 461 Tommaso Richards 2:25.327
51 926 Ryan Martin 2:25.353
52 319 Devon Bates 2:25.672
53 512 Austin Cozadd 2:26.131
54 292 Kolton Dean 2:26.632
55 470 Ethan Day 2:27.584
56 250 Brandon Kallberg 2:27.623
57 979 Filippo Maus 2:27.892
58 458 Brent Burkhart 2:28.010
59 482 Riley Brough 2:28.038
60 565 Dominic DeSimone 2:28.101
61 472 Rory Sullivan 2:28.211
62 398 Wade Huffman 2:28.946
63 700 Kyle Krell 2:29.096
64 344 Monte McGrath 2:29.607
65 719 Giosuè Berchem 2:29.868
66 253 Nicholas Jones 2:30.050
67 894 Dwight Dillon 2:30.375
68 989 Chris Rogers 2:30.757
69 845 Bryan O'Neil 2:31.195
70 735 Jake Warren 2:31.574
71 450 Brad Burkhart 2:31.920
72 326 Rafael Chao 2:32.189
73 917 Drew Thomas 2:32.297
74 732 Josh McBride 2:33.180
75 402 Samuel Greenawalt 2:33.323
76 774 Bradley Denton 2:36.252
77 641 Tommy Flora 2:37.472
78 274 Jared Struebing 2:42.576

 

450 SESSIONI 1 RISULTATI

Josh Mosiman della MXA ha guidato il primo giro delle qualifiche nella classe 450. Quando i piloti hanno preso il volo, è stato Eli Tomac a uscire dal campo segnando un tempo sul giro di 2:14.123. Al terzo giro i compagni di squadra Honda di Ken Roczen e Chase Sexton hanno conquistato le prime posizioni. Ken ha fatto irruzione nel tempo sul giro di 2:12.

Al 5° giro Tomac ha ripreso la pole position con un tempo di 2:10 con Sexton, Anderson e Roczen al seguito.

Tomac ha mantenuto la pole fino al termine della prima sessione di qualifiche. Il nostro Josh Mosiman si è seduto 23° nella prima sessione.

POS. # RIDER MIGLIOR TEMPO
1 3 Eli Tomac 2:10.926
2 23 Chase Sexton 2:11.301
3 94 Ken Roczen 2:11.830
4 21 Jason Anderson 2:12.724
5 28 Christian Craig 2:13.259
6 51 Justin Barcia 2:13.695
7 5 Ryan Dungey 2:13.958
8 17 Giuseppe Savatgy 2:14.155
9 12 Shane McElrath 2:14.248
10 35 Garrett Marchbanks 2:15.245
11 26 Alex Martin 2:15.942
12 41 Brandon Hartranft 2:16.131
13 73 Benny Bloss 2:16.221
14 61 Fredrik Noren 2:16.515
15 55 Justin Rodbell 2:17.050
16 285 Maresciallo Weltin 2:17.143
17 7 Aaron Plessinger 2:17.333
18 78 Cade Clason 2:19.492
19 910 Carson Brown 2:19.701
20 837 Bryson Gardner 2:20.041
21 65 Grant Harlan 2:20.045
22 11 Kyle Chisholm 2:20.196
23 171 Josh Mosiman 2:20.348
24 57 Kevin Moranz 2:20.496
25 420 Jackson Grey 2:21.634
26 139 Nathen LaPorte 2:21.678
27 820 Matteo Burkeen 2:21.746
28 787 Lars van Berkel 2:21.929
29 92 Jace Kessler 2:22.101
30 234 McCoy Brough 2:22.209
31 841 Jeffrey Walker 2:22.253
32 216 Devin Harriman 2:22.395
33 170 Keylan Meston 2:22.627
34 645 Colby Copp 2:24.505
35 928 Bryce Hammond 2:24.916
36 958 Matteo Curler 2:25.120
37 319 Devon Bates 2:25.672
38 565 Dominic DeSimone 2:28.101
Nazionale di Washougal 2022450 qualificazioniMotocross professionaleSX-450-I RISULTATImotocross washougalWashougal MXcittadino washougal